GW3356 Weather Reports


time (UTC)temp
C
wind
direction
speed
KPH
gust
KPH
rain 1hr
cm
rain 24hr
cm
rain mn
cm
humidity
%
barometer
mb
20260906150002 25 53 0.0 9.7 0.00 0.00 0.00 76 1016.7
20260906145501 26 40 3.2 11.3 0.00 0.00 0.00 76 1016.5
20260906145001 25 61 0.0 1.6 0.00 0.00 0.00 78 1016.4
20260906144456 25 40 0.0 1.6 0.00 0.00 0.00 79 1016.3
20260906143951 25 44 0.0 9.7 0.00 0.00 0.00 79 1016.4
20260906143447 25 50 0.0 1.6 0.00 0.00 0.00 79 1016.2
20260906142943 25 25 3.2 6.4 0.00 0.00 0.00 78 1016.4
20260906142436 25 64 0.0 3.2 0.00 0.00 0.00 80 1016.4
20260906141931 25 48 3.2 9.7 0.00 0.00 0.00 79 1016.2
20260906141426 25 62 0.0 6.4 0.00 0.00 0.00 80 1016.2
20260906140925 25 55 6.4 9.7 0.00 0.00 0.00 79 1016.0
20260906140420 25 44 0.0 4.8 0.00 0.00 0.00 80 1016.0
20260906135918 24 47 0.0 1.6 0.00 0.00 0.00 81 1016.2
20260906135418 24 352 4.8 6.4 0.00 0.00 0.00 81 1016.0
20260906134913 24 40 3.2 4.8 0.00 0.00 0.00 81 1015.9
20260906134409 24 32 1.6 3.2 0.00 0.00 0.00 82 1016.0
20260906133903 23 48 0.0 1.6 0.00 0.00 0.00 83 1016.0
20260906133359 23 26 4.8 9.7 0.00 0.00 0.00 82 1016.2
20260906132855 23 35 4.8 6.4 0.00 0.00 0.00 83 1015.9
20260906132349 23 37 0.0 6.4 0.00 0.00 0.00 84 1015.9
20260906131845 23 351 1.6 4.8 0.00 0.00 0.00 84 1016.0
20260906131341 23 47 0.0 9.7 0.00 0.00 0.00 84 1016.2
20260906130836 23 339 6.4 9.7 0.00 0.00 0.00 84 1016.2
20260906130336 23 42 0.0 1.6 0.00 0.00 0.00 85 1016.2
20260906125835 23 43 3.2 6.4 0.00 0.00 0.00 85 1016.3
20260906125332 23 46 0.0 3.2 0.00 0.00 0.00 85 1016.2
20260906124827 23 41 1.6 6.4 0.00 0.00 0.00 85 1016.2
20260906124323 22 14 3.2 3.2 0.00 0.00 0.00 86 1015.9
20260906123822 22 24 4.8 4.8 0.00 0.00 0.00 86 1015.9
20260906123317 22 46 0.0 1.6 0.00 0.00 0.00 86 1016.0
20260906122817 22 39 0.0 6.4 0.00 0.00 0.00 86 1015.8
20260906122312 22 34 0.0 1.6 0.00 0.00 0.00 87 1015.8
20260906121809 22 29 1.6 1.6 0.00 0.00 0.00 87 1015.8
20260906121305 22 40 3.2 9.7 0.00 0.00 0.00 87 1015.7
20260906120801 22 46 0.0 3.2 0.00 0.00 0.00 87 1015.5
20260906120257 22 51 0.0 1.6 0.00 0.00 0.00 87 1015.5
20260906115753 22 20 0.0 3.2 0.00 0.00 0.00 87 1015.2
20260906115248 22 43 0.0 1.6 0.00 0.00 0.00 87 1015.3
20260906114747 22 53 0.0 3.2 0.00 0.00 0.00 88 1015.2
20260906114242 22 53 1.6 3.2 0.00 0.00 0.00 88 1015.1
20260906113738 22 44 1.6 1.6 0.00 0.00 0.00 88 1015.1
20260906113237 22 40 0.0 3.2 0.00 0.00 0.00 87 1015.1
20260906112736 22 46 0.0 1.6 0.00 0.00 0.00 87 1015.2
20260906112234 23 47 4.8 6.4 0.00 0.00 0.00 87 1015.2
20260906111733 23 49 0.0 3.2 0.00 0.00 0.00 87 1015.1
20260906111233 23 44 1.6 4.8 0.00 0.00 0.00 87 1015.2
20260906110728 23 46 0.0 0.0 0.00 0.00 0.00 88 1015.0
20260906110224 23 40 0.0 1.6 0.00 0.00 0.00 87 1014.9
20260906105722 23 40 0.0 1.6 0.00 0.00 0.00 87 1014.9
20260906105219 23 46 0.0 3.2 0.00 0.00 0.00 87 1014.8
20260906104719 23 33 1.6 1.6 0.00 0.00 0.00 87 1014.8
20260906104218 23 54 0.0 1.6 0.00 0.00 0.00 87 1014.9
20260906103715 23 42 0.0 3.2 0.00 0.00 0.00 86 1014.9
20260906103211 23 42 0.0 1.6 0.00 0.00 0.00 86 1014.9
20260906102706 23 46 0.0 1.6 0.00 0.00 0.00 87 1014.6
20260906102206 23 28 1.6 3.2 0.00 0.00 0.00 86 1014.6
20260906101705 23 34 0.0 4.8 0.00 0.00 0.00 86 1014.5
20260906101201 23 29 0.0 1.6 0.00 0.00 0.00 86 1014.7
20260906100656 24 45 0.0 3.2 0.00 0.00 0.00 86 1014.6
20260906100156 24 46 0.0 6.4 0.00 0.00 0.00 86 1014.8
20260906095651 24 46 0.0 3.2 0.00 0.00 0.00 86 1014.6
20260906095146 24 45 0.0 3.2 0.00 0.00 0.00 86 1014.5
20260906094645 24 46 0.0 1.6 0.00 0.00 0.00 85 1014.3
20260906094141 24 49 0.0 1.6 0.00 0.00 0.00 85 1014.4
20260906093637 25 45 0.0 1.6 0.00 0.00 0.00 85 1014.5
20260906093137 25 45 0.0 1.6 0.00 0.00 0.00 85 1014.4
20260906092632 25 46 0.0 3.2 0.00 0.00 0.00 84 1014.3
20260906092132 25 39 0.0 1.6 0.00 0.00 0.00 83 1014.2
20260906091629 25 47 0.0 4.8 0.00 0.00 0.00 83 1014.5
20260906091126 25 47 0.0 3.2 0.00 0.00 0.00 83 1014.2
20260906090621 25 51 1.6 4.8 0.00 0.00 0.00 83 1014.1
20260906090120 25 43 1.6 1.6 0.00 0.00 0.00 83 1014.1
20260906085620 25 39 3.2 4.8 0.00 0.00 0.00 84 1014.2
20260906085114 25 39 1.6 3.2 0.00 0.00 0.00 84 1014.2
20260906084609 25 41 0.0 0.0 0.00 0.00 0.00 84 1014.1
20260906084107 25 37 1.6 4.8 0.00 0.00 0.00 84 1014.2
20260906083603 25 50 0.0 3.2 0.00 0.00 0.00 83 1014.0
20260906083103 26 37 4.8 4.8 0.00 0.00 0.00 83 1014.1
20260906082558 26 54 0.0 4.8 0.00 0.00 0.00 83 1013.9
20260906082054 26 56 0.0 3.2 0.00 0.00 0.00 83 1013.9
20260906081550 26 47 0.0 1.6 0.00 0.00 0.00 83 1013.8
20260906081045 26 50 0.0 0.0 0.00 0.00 0.00 83 1013.7
20260906080542 26 44 0.0 3.2 0.00 0.00 0.00 83 1013.8
20260906080038 26 36 1.6 3.2 0.00 0.00 0.00 83 1013.8
20260906075537 26 45 0.0 3.2 0.00 0.00 0.00 83 1013.9
20260906075032 26 51 0.0 1.6 0.00 0.00 0.00 82 1013.8
20260906074526 26 45 0.0 3.2 0.00 0.00 0.00 82 1014.2
20260906074025 26 44 0.0 1.6 0.00 0.00 0.00 83 1014.0
20260906073520 26 49 0.0 1.6 0.00 0.00 0.00 82 1014.0
20260906073016 26 50 0.0 3.2 0.00 0.00 0.00 82 1013.9
20260906072511 27 33 1.6 4.8 0.00 0.00 0.00 82 1014.0
20260906072008 27 45 1.6 1.6 0.00 0.00 0.00 82 1014.0
20260906071503 27 43 0.0 1.6 0.00 0.00 0.00 81 1014.0
20260906070958 27 56 0.0 4.8 0.00 0.00 0.00 81 1013.7
20260906070454 27 48 0.0 1.6 0.00 0.00 0.00 80 1014.0
20260906065950 27 61 0.0 1.6 0.00 0.00 0.00 80 1013.9
20260906065449 27 49 0.0 1.6 0.00 0.00 0.00 80 1013.8
20260906064945 27 44 0.0 1.6 0.00 0.00 0.00 79 1013.9
20260906064441 27 55 0.0 1.6 0.00 0.00 0.00 79 1014.0
20260906063935 27 48 0.0 1.6 0.00 0.00 0.00 79 1013.9
20260906063431 27 55 0.0 1.6 0.00 0.00 0.00 78 1013.9
20260906062926 27 61 1.6 3.2 0.00 0.00 0.00 78 1013.9
20260906062426 27 78 1.6 1.6 0.00 0.00 0.00 78 1013.9
20260906061921 27 45 1.6 3.2 0.00 0.00 0.00 78 1013.9
20260906061417 28 44 0.0 3.2 0.00 0.00 0.00 77 1014.0
20260906060911 28 39 0.0 1.6 0.00 0.00 0.00 77 1013.9
20260906060409 28 55 0.0 3.2 0.00 0.00 0.00 77 1013.9
20260906055905 28 55 0.0 0.0 0.00 0.00 0.00 76 1014.0
20260906055401 28 52 0.0 1.6 0.00 0.00 0.00 76 1014.2
20260906054855 28 42 0.0 0.0 0.00 0.00 0.00 75 1014.0
20260906054350 28 51 0.0 0.0 0.00 0.00 0.00 75 1014.1
20260906053847 28 51 0.0 0.0 0.00 0.00 0.00 75 1013.9
20260906053342 28 56 0.0 0.0 0.00 0.00 0.00 74 1013.8
20260906052838 28 51 0.0 1.6 0.00 0.00 0.00 74 1013.9
20260906052334 28 37 0.0 1.6 0.00 0.00 0.00 74 1014.0
20260906051831 28 50 0.0 1.6 0.00 0.00 0.00 74 1013.9
20260906051330 28 40 0.0 0.0 0.00 0.00 0.00 73 1013.8
20260906050826 28 47 0.0 0.0 0.00 0.00 0.00 73 1013.9
20260906050321 28 37 0.0 1.6 0.00 0.00 0.00 72 1013.9
20260906045819 28 37 1.6 1.6 0.00 0.00 0.00 72 1013.7
20260906045314 29 42 0.0 1.6 0.00 0.00 0.00 71 1014.0
20260906044811 29 42 0.0 0.0 0.00 0.00 0.00 71 1013.7
20260906044305 29 45 0.0 0.0 0.00 0.00 0.00 71 1013.7
20260906043801 29 47 0.0 1.6 0.00 0.00 0.00 71 1013.7
20260906043257 29 46 0.0 0.0 0.00 0.00 0.00 70 1013.7
20260906042756 29 43 0.0 1.6 0.00 0.00 0.00 70 1013.6
20260906042256 30 48 0.0 0.0 0.00 0.00 0.00 69 1013.6
20260906041751 30 45 0.0 0.0 0.00 0.00 0.00 69 1013.5
20260906041246 30 46 0.0 1.6 0.00 0.00 0.00 69 1013.6
20260906040742 30 51 0.0 4.8 0.00 0.00 0.00 68 1013.5
20260906040237 30 39 0.0 0.0 0.00 0.00 0.00 68 1013.3
20260906035732 30 47 0.0 1.6 0.00 0.00 0.00 67 1013.3
20260906035228 30 48 0.0 1.6 0.00 0.00 0.00 67 1013.5
20260906034727 30 39 0.0 3.2 0.00 0.00 0.00 66 1013.2
20260906034222 30 45 0.0 3.2 0.00 0.00 0.00 66 1013.4
20260906033718 30 39 0.0 3.2 0.00 0.00 0.00 65 1013.2
20260906033212 30 44 0.0 3.2 0.00 0.00 0.00 66 1013.5
20260906032709 30 32 0.0 3.2 0.00 0.00 0.00 66 1013.3
20260906032209 30 42 0.0 1.6 0.00 0.00 0.00 66 1013.4
20260906031704 30 45 0.0 1.6 0.00 0.00 0.00 65 1013.4
20260906031159 30 50 0.0 0.0 0.00 0.00 0.00 65 1013.2
20260906030700 30 48 0.0 0.0 0.00 0.00 0.00 65 1013.1
20260906030155 30 48 0.0 1.6 0.00 0.00 0.00 65 1013.1
20260906025654 30 42 0.0 0.0 0.00 0.00 0.00 65 1013.1
20260906025153 30 38 1.6 3.2 0.00 0.00 0.00 65 1013.0
20260906024648 30 48 0.0 3.2 0.00 0.00 0.00 65 1013.1
20260906024147 30 44 1.6 1.6 0.00 0.00 0.00 65 1013.0
20260906023643 30 42 0.0 3.2 0.00 0.00 0.00 65 1012.7
20260906023143 30 42 0.0 1.6 0.00 0.00 0.00 66 1012.8
20260906022638 30 29 0.0 0.0 0.00 0.00 0.00 66 1012.7
20260906022135 30 30 0.0 1.6 0.00 0.00 0.00 67 1012.6
20260906021630 30 30 0.0 0.0 0.00 0.00 0.00 64 1012.5
20260906021128 30 30 0.0 1.6 0.00 0.00 0.00 64 1012.6
20260906020629 30 30 0.0 0.0 0.00 0.00 0.00 64 1012.4
20260906020123 30 34 0.0 0.0 0.00 0.00 0.00 64 1012.2
20260906015619 30 34 0.0 1.6 0.00 0.00 0.00 64 1012.3
20260906015117 30 41 0.0 1.6 0.00 0.00 0.00 64 1012.2
20260906014612 30 38 0.0 1.6 0.00 0.00 0.00 62 1012.1
20260906014109 30 50 0.0 0.0 0.00 0.00 0.00 62 1012.2
20260906013603 30 50 0.0 0.0 0.00 0.00 0.00 62 1012.0
20260906013058 30 44 0.0 0.0 0.00 0.00 0.00 62 1011.9
20260906012553 31 41 0.0 0.0 0.00 0.00 0.00 61 1011.8
20260906012053 31 41 1.6 3.2 0.00 0.00 0.00 61 1011.9
20260906011549 31 38 0.0 3.2 0.00 0.00 0.00 60 1012.0
20260906011048 31 32 0.0 1.6 0.00 0.00 0.00 60 1011.7
20260906010544 31 47 0.0 0.0 0.00 0.00 0.00 59 1011.7
20260906010040 31 48 0.0 0.0 0.00 0.00 0.00 58 1011.6
20260906005539 32 36 0.0 0.0 0.00 0.00 0.00 57 1011.8
20260906005038 32 42 0.0 0.0 0.00 0.00 0.00 55 1011.5
20260906004538 32 37 0.0 1.6 0.00 0.00 0.00 56 1011.5
20260906004033 32 42 0.0 0.0 0.00 0.00 0.00 55 1011.5
20260906003529 32 50 0.0 3.2 0.00 0.00 0.00 54 1011.5
20260906003025 32 49 0.0 1.6 0.00 0.00 0.00 53 1011.7
20260906002525 32 46 0.0 4.8 0.00 0.00 0.00 52 1011.4
20260906002019 33 47 0.0 3.2 0.00 0.00 0.00 52 1011.7
20260906001515 33 34 0.0 3.2 0.00 0.00 0.00 51 1011.6
20260906001009 33 54 0.0 1.6 0.00 0.00 0.00 52 1011.6
20260906000506 33 46 0.0 1.6 0.00 0.00 0.00 51 1011.8
20260906000000 33 45 0.0 0.0 0.00 0.00 0.00 50 1011.7
20260905235459 33 43 0.0 0.0 0.00 0.00 0.00 49 1011.8
20260905234955 33 47 1.6 3.2 0.00 0.00 0.00 48 1011.8
20260905234451 33 24 4.8 4.8 0.00 0.00 0.00 48 1011.6
20260905233950 34 40 0.0 1.6 0.00 0.00 0.00 49 1011.4
20260905233446 34 41 0.0 0.0 0.00 0.00 0.00 49 1011.8
20260905232944 34 44 1.6 3.2 0.00 0.00 0.00 47 1011.8
20260905232441 35 36 0.0 3.2 0.00 0.00 0.00 49 1011.8
20260905231936 35 41 0.0 0.0 0.00 0.00 0.00 48 1011.8
20260905231432 35 41 0.0 0.0 0.00 0.00 0.00 47 1011.7
20260905230928 35 50 0.0 0.0 0.00 0.00 0.00 46 1011.8
20260905230426 35 48 0.0 0.0 0.00 0.00 0.00 46 1011.7
20260905225925 35 34 0.0 4.8 0.00 0.00 0.00 45 1011.8
20260905225420 35 48 0.0 1.6 0.00 0.00 0.00 44 1011.7
20260905224915 35 42 0.0 1.6 0.00 0.00 0.00 44 1011.6
20260905224411 35 45 0.0 1.6 0.00 0.00 0.00 44 1011.7
20260905223905 35 43 0.0 3.2 0.00 0.00 0.00 44 1011.6
20260905223403 35 46 0.0 1.6 0.00 0.00 0.00 44 1011.6
20260905222903 35 54 0.0 1.6 0.00 0.00 0.00 42 1011.4
20260905222402 36 37 6.4 11.3 0.00 0.00 0.00 41 1011.6
20260905221858 36 65 1.6 9.7 0.00 0.00 0.00 42 1011.6
20260905221355 37 26 3.2 16.1 0.00 0.00 0.00 40 1011.5
20260905220850 36 301 1.6 3.2 0.00 0.00 0.00 46 1011.8
20260905220346 37 23 1.6 3.2 0.00 0.00 0.00 47 1011.5
20260905215845 36 25 0.0 1.6 0.00 0.00 0.00 48 1011.7
20260905215342 36 39 0.0 0.0 0.00 0.00 0.00 51 1011.7
20260905214838 36 44 0.0 0.0 0.00 0.00 0.00 50 1011.7
20260905214332 36 26 0.0 1.6 0.00 0.00 0.00 50 1011.8
20260905213827 36 33 0.0 1.6 0.00 0.00 0.00 48 1011.7
20260905213323 36 350 1.6 1.6 0.00 0.00 0.00 46 1011.9
20260905212818 36 22 0.0 3.2 0.00 0.00 0.00 48 1011.8
20260905212318 36 267 3.2 4.8 0.00 0.00 0.00 46 1011.7
20260905211818 36 38 0.0 3.2 0.00 0.00 0.00 47 1011.5
20260905211313 36 14 1.6 4.8 0.00 0.00 0.00 45 1011.6
20260905210810 37 27 0.0 3.2 0.00 0.00 0.00 44 1011.9
20260905210309 36 354 1.6 3.2 0.00 0.00 0.00 44 1012.0
20260905205808 36 342 1.6 6.4 0.00 0.00 0.00 45 1012.2
20260905205306 35 30 0.0 1.6 0.00 0.00 0.00 50 1012.1
20260905204802 36 36 0.0 1.6 0.00 0.00 0.00 51 1012.1
20260905204259 37 63 1.6 3.2 0.00 0.00 0.00 48 1012.2
20260905203757 37 340 1.6 1.6 0.00 0.00 0.00 45 1012.2
20260905203253 37 80 1.6 3.2 0.00 0.00 0.00 43 1012.1
20260905202749 37 35 0.0 1.6 0.00 0.00 0.00 46 1012.1
20260905202244 37 38 1.6 6.4 0.00 0.00 0.00 44 1012.2
20260905201739 38 70 1.6 4.8 0.00 0.00 0.00 42 1012.3
20260905201234 37 3 1.6 4.8 0.00 0.00 0.00 43 1012.4
20260905200729 38 240 3.2 6.4 0.00 0.00 0.00 40 1012.3
20260905200225 37 13 1.6 3.2 0.00 0.00 0.00 36 1012.2
20260905195723 37 15 1.6 3.2 0.00 0.00 0.00 37 1012.4
20260905195218 38 334 3.2 4.8 0.00 0.00 0.00 35 1012.1
20260905194714 39 42 6.4 9.7 0.00 0.00 0.00 34 1012.1
20260905194213 39 35 3.2 9.7 0.00 0.00 0.00 34 1012.2
20260905193707 38 6 4.8 6.4 0.00 0.00 0.00 34 1012.2
20260905193202 38 18 3.2 11.3 0.00 0.00 0.00 35 1012.5
20260905192658 38 39 1.6 6.4 0.00 0.00 0.00 35 1012.5
20260905192154 38 39 3.2 6.4 0.00 0.00 0.00 35 1012.5
20260905191654 40 4 6.4 11.3 0.00 0.00 0.00 33 1012.6
20260905191151 40 23 1.6 6.4 0.00 0.00 0.00 35 1012.8
20260905190650 39 32 1.6 6.4 0.00 0.00 0.00 35 1012.7
20260905190149 38 33 0.0 1.6 0.00 0.00 0.00 35 1012.7
20260905185649 39 42 6.4 11.3 0.00 0.00 0.00 33 1012.7
20260905185144 39 15 1.6 3.2 0.00 0.00 0.00 34 1013.0
20260905184643 39 32 1.6 3.2 0.00 0.00 0.00 34 1012.9
20260905184142 38 16 3.2 4.8 0.00 0.00 0.00 34 1013.0
20260905183641 38 26 3.2 3.2 0.00 0.00 0.00 35 1013.0
20260905183137 38 36 1.6 4.8 0.00 0.00 0.00 37 1013.1
20260905182636 38 107 1.6 3.2 0.00 0.00 0.00 37 1013.3
20260905182136 38 28 4.8 6.4 0.00 0.00 0.00 40 1013.0
20260905181631 38 40 0.0 9.7 0.00 0.00 0.00 38 1013.2
20260905181130 38 46 0.0 3.2 0.00 0.00 0.00 37 1013.2
20260905180625 38 10 6.4 6.4 0.00 0.00 0.00 38 1013.2
20260905180121 37 86 3.2 4.8 0.00 0.00 0.00 38 1013.5
20260905175620 37 49 1.6 3.2 0.00 0.00 0.00 39 1013.5
20260905175115 37 68 1.6 9.7 0.00 0.00 0.00 39 1013.3
20260905174611 38 20 1.6 6.4 0.00 0.00 0.00 39 1013.6
20260905174106 38 43 1.6 3.2 0.00 0.00 0.00 39 1013.5
20260905173603 37 350 3.2 3.2 0.00 0.00 0.00 39 1013.6
20260905173058 37 52 1.6 3.2 0.00 0.00 0.00 41 1013.5
20260905172556 37 12 3.2 4.8 0.00 0.00 0.00 41 1013.6
20260905172052 37 87 0.0 4.8 0.00 0.00 0.00 41 1013.8
20260905171548 37 83 1.6 4.8 0.00 0.00 0.00 42 1013.6
20260905171044 37 53 1.6 1.6 0.00 0.00 0.00 41 1013.9
20260905170540 37 349 1.6 3.2 0.00 0.00 0.00 42 1013.9
20260905170035 37 55 0.0 0.0 0.00 0.00 0.00 44 1013.9
20260905165530 37 51 1.6 3.2 0.00 0.00 0.00 42 1014.0
20260905165026 37 49 1.6 9.7 0.00 0.00 0.00 43 1014.2
20260905164525 37 41 0.0 3.2 0.00 0.00 0.00 43 1014.3
20260905164020 37 37 0.0 3.2 0.00 0.00 0.00 43 1014.2
20260905163516 36 138 1.6 3.2 0.00 0.00 0.00 43 1014.2
20260905163012 36 36 1.6 3.2 0.00 0.00 0.00 45 1014.3
20260905162508 35 46 0.0 1.6 0.00 0.00 0.00 53 1014.5
20260905162002 36 36 1.6 3.2 0.00 0.00 0.00 52 1014.3
20260905161502 35 48 1.6 3.2 0.00 0.00 0.00 54 1014.1
20260905161000 35 62 0.0 1.6 0.00 0.00 0.00 56 1014.4
20260905160454 35 97 1.6 4.8 0.00 0.00 0.00 55 1014.4
20260905155953 34 54 0.0 3.2 0.00 0.00 0.00 56 1014.3
20260905155448 34 17 1.6 1.6 0.00 0.00 0.00 57 1014.3
20260905154947 34 229 1.6 4.8 0.00 0.00 0.00 57 1014.3
20260905154442 33 102 0.0 1.6 0.00 0.00 0.00 58 1014.4
20260905153938 33 130 1.6 1.6 0.00 0.00 0.00 56 1014.3
20260905153434 33 73 1.6 4.8 0.00 0.00 0.00 58 1014.4
20260905152933 33 58 0.0 1.6 0.00 0.00 0.00 62 1014.3
20260905152433 32 39 1.6 1.6 0.00 0.00 0.00 62 1014.4
20260905151928 32 300 3.2 3.2 0.00 0.00 0.00 62 1014.4
20260905151424 32 4 3.2 3.2 0.00 0.00 0.00 62 1014.4
20260905150925 31 55 0.0 3.2 0.00 0.00 0.00 65 1014.3
20260905150424 31 17 1.6 3.2 0.00 0.00 0.00 65 1014.4